This demonstration page uses our WeatherBlox Daily Observations layout. Learn more.

40.92945, -100.16068

Hourly Observations for May 29, 2018

Temp ( °F °C ) Dew Point ( °F °C ) Humidity (%) Winds ( mph kmh ) Pressure ( in mb ) Visibility ( mi km ) Precip ( " mm )
12:15 am 00:15 Cloudy with Rain 62 16.4 59 14.8 90 90 W 16 26 30 1016 7 11.26538 0.08 2.032
12:35 am 00:35 Cloudy with Rain 61 16.1 59 15 93 93 W 16 26 30 1016 7 11.26538 0.16 4.064
12:55 am 00:55 Cloudy with Light Rain 61 16.2 59 15 93 93 W 13 20 30 1016 10 16.0934 0.18 4.572
1:15 am 01:15 Cloudy with Light Rain 61 16.3 59 14.9 91 91 Calm 29.97 1015 10 16.0934 0.03 0.762
1:35 am 01:35 Cloudy with Light Rain 61 16.1 58 14.7 91 91 ENE 6 9 29.94 1014 10 16.0934 0.04 1.016
1:55 am 01:55 Mostly Cloudy with Light Rain 61 16 59 15 94 94 E 12 19 29.85 1011 10 16.0934 0.04 1.016
2:15 am 02:15 Mostly Cloudy 61 16.2 58 14.7 91 91 E 9 15 29.83 1010 10 16.0934 0 0
2:35 am 02:35 Cloudy with Rain 62 16.7 58 14.2 85 85 SSE 10 17 29.85 1011 10 16.0934 0 0
2:55 am 02:55 Mostly Cloudy 61 16.2 58 14.6 90 90 SE 14 22 29.8 1009 10 16.0934 0 0
3:15 am 03:15 Partly Cloudy 62 16.5 58 14.5 88 88 SE 13 20 29.8 1009 10 16.0934 0 0
3:35 am 03:35 Partly Cloudy 62 16.5 58 14.5 88 88 SSE 14 22 29.8 1009 10 16.0934 0 0
3:55 am 03:55 Mostly Cloudy 62 16.5 58 14.5 88 88 S 9 15 29.8 1009 10 16.0934 0 0
4:15 am 04:15 Cloudy 61 16.2 58 14.6 90 90 SSW 7 11 29.83 1010 10 16.0934 0 0
4:35 am 04:35 Partly Cloudy 61 16.3 58 14.5 89 89 SSW 10 17 29.83 1010 10 16.0934 0 0
4:55 am 04:55 Partly Cloudy 62 16.7 58 14.5 87 87 SW 12 19 29.83 1010 10 16.0934 0 0
5:15 am 05:15 Partly Cloudy 62 16.4 58 14.5 89 89 SW 15 24 29.83 1010 10 16.0934 0 0
5:35 am 05:35 Mostly Cloudy 63 17.3 57 14 81 81 SW 20 31 29.8 1009 10 16.0934 0 0
5:55 am 05:55 Mostly Cloudy 64 17.6 57 13.7 78 78 SW 18 30 29.8 1009 10 16.0934 0.01 0.254
6:15 am 06:15 Mostly Cloudy 64 17.8 56 13.6 77 77 SW 21 33 29.83 1010 10 16.0934 0 0
6:35 am 06:35 Partly Cloudy 64 17.5 57 13.8 79 79 WSW 16 26 29.83 1010 10 16.0934 0 0
6:55 am 06:55 Mostly Cloudy 64 17.9 56 13.4 75 75 SW 7 11 29.85 1011 10 16.0934 0 0
7:15 am 07:15 Cloudy with Light Rain 63 17.1 57 13.9 82 82 SSW 6 9 29.85 1011 10 16.0934 0 0
7:35 am 07:35 Cloudy with Rain 63 17 57 14 83 83 Calm 29.85 1011 7 11.26538 0 0
7:55 am 07:55 Cloudy with Rain 63 17 57 13.8 82 82 WSW 6 9 29.85 1011 10 16.0934 0.01 0.254
8:15 am 08:15 Cloudy with Light Rain 62 16.6 57 13.9 84 84 W 12 19 29.85 1011 10 16.0934 0.02 0.508
8:35 am 08:35 Cloudy with Light Rain 62 16.5 58 14.2 86 86 WNW 5 7 29.83 1010 10 16.0934 0.03 0.762
8:55 am 08:55 Cloudy 62 16.8 58 14.7 88 88 Calm 29.83 1010 10 16.0934 0.03 0.762
9:15 am 09:15 Mostly Cloudy 64 17.7 60 15.4 86 86 S 9 15 29.85 1011 10 16.0934 0 0
9:35 am 09:35 Partly Cloudy 65 18.3 60 15.5 84 84 SSE 8 13 29.85 1011 10 16.0934 0 0
9:55 am 09:55 Mostly Cloudy with Light Rain 64 17.8 59 15.2 85 85 SSE 6 9 29.85 1011 10 16.0934 0 0
10:15 am 10:15 Partly Cloudy with Nearby Thunderstorms 65 18.6 60 15.5 82 82 SE 7 11 29.83 1010 10 16.0934 0 0
10:35 am 10:35 Mostly Cloudy 65 18.3 60 15.5 84 84 ESE 5 7 29.83 1010 10 16.0934 0 0
10:55 am 10:55 Cloudy with Rain 64 18 60 15.5 85 85 SSW 7 11 29.85 1011 10 16.0934 0 0
11:15 am 11:15 Cloudy with Rain 64 17.5 60 15.8 90 90 W 7 11 29.88 1012 10 16.0934 0.01 0.254
11:35 am 11:35 Cloudy with Rain 63 17.4 59 15.2 87 87 WSW 6 9 29.85 1011 5 8.0467 0.05 1.27
11:55 am 11:55 Cloudy with Light Rain 64 17.5 60 15.3 87 87 ENE 6 9 29.83 1010 10 16.0934 0.05 1.27
12:15 pm 12:15 Partly Cloudy 64 17.5 60 15.6 89 89 E 9 15 29.8 1009 10 16.0934 0.01 0.254
12:35 pm 12:35 Partly Cloudy 64 17.5 60 15.7 89 89 SE 6 9 29.83 1010 10 16.0934 0.01 0.254
12:55 pm 12:55 Partly Cloudy 64 17.5 60 15.5 88 88 ESE 8 13 29.83 1010 10 16.0934 0.01 0.254
1:15 pm 13:15 Mostly Cloudy 64 17.7 60 15.8 89 89 E 6 9 29.83 1010 10 16.0934 0 0
1:35 pm 13:35 Mostly Cloudy with Nearby Thunderstorms 65 18.2 60 15.5 84 84 Calm 29.83 1010 10 16.0934 0 0
1:55 pm 13:55 Mostly Cloudy 64 17.5 59 15.2 86 86 E 10 17 29.83 1010 10 16.0934 0 0
2:15 pm 14:15 Mostly Cloudy 63 17.2 60 15.5 90 90 SSE 3 6 29.83 1010 10 16.0934 0 0
2:35 pm 14:35 Partly Cloudy with Light Thunderstorms 63 17.2 60 15.4 89 89 ESE 5 7 29.83 1010 10 16.0934 0 0
2:55 pm 14:55 Mostly Cloudy 63 17.2 60 15.5 90 90 SSE 5 7 29.83 1010 10 16.0934 0 0
3:15 pm 15:15 Cloudy with Light Thunderstorms 62 16.7 59 15 90 90 S 7 11 29.83 1010 10 16.0934 0 0
3:35 pm 15:35 Cloudy 62 16.7 60 15.3 92 92 S 3 6 29.83 1010 10 16.0934 0.01 0.254
3:55 pm 15:55 Cloudy with Light Rain 62 16.9 60 15.5 92 92 S 3 6 29.8 1009 10 16.0934 0.02 0.508
4:15 pm 16:15 Cloudy with Nearby Thunderstorms 63 17 60 15.6 92 92 Calm 29.8 1009 5 8.0467 0.02 0.508
4:35 pm 16:35 Mostly Cloudy 62 16.7 60 15.6 93 93 Calm 29.8 1009 2.5 4.02335 0.11 2.794
4:55 pm 16:55 Mostly Cloudy with Light Thunderstorms 62 16.9 61 15.9 94 94 SSE 6 9 29.8 1009 10 16.0934 0.16 4.064
5:15 pm 17:15 Mostly Cloudy 62 16.8 60 15.6 93 93 Calm 29.77 1008 10 16.0934 0 0
5:35 pm 17:35 Cloudy with Light Drizzle 63 17.1 60 15.8 92 92 SW 7 11 29.77 1008 10 16.0934 0 0
5:55 pm 17:55 Cloudy 63 17 60 15.5 91 91 Calm 29.74 1007 10 16.0934 0 0
6:15 pm 18:15 Partly Cloudy with Nearby Thunderstorms 64 17.6 61 16.2 92 92 S 6 9 29.74 1007 10 16.0934 0 0
6:35 pm 18:35 Sunny 67 19.3 61 15.9 81 81 SSE 3 6 29.71 1006 10 16.0934 0 0
6:55 pm 18:55 Sunny 68 20 61 15.9 77 77 SSE 3 6 29.71 1006 10 16.0934 0 0
7:15 pm 19:15 Partly Cloudy 68 19.9 61 16.2 79 79 S 3 6 29.71 1006 10 16.0934 0 0
7:35 pm 19:35 Mostly Cloudy with Nearby Thunderstorms 69 20.6 61 16.3 76 76 SSE 6 9 29.71 1006 10 16.0934 0 0
7:55 pm 19:55 Mostly Cloudy 67 19.6 61 16 80 80 Calm 29.71 1006 10 16.0934 0 0
8:15 pm 20:15 Partly Cloudy 67 19.2 60 15.6 80 80 Calm 29.71 1006 10 16.0934 0 0
8:35 pm 20:35 Partly Cloudy 65 18.1 61 16.1 88 88 W 7 11 29.71 1006 10 16.0934 0 0
8:55 pm 20:55 Partly Cloudy 65 18.4 61 16.1 87 87 WSW 7 11 29.71 1006 10 16.0934 0 0
9:15 pm 21:15 Partly Cloudy 65 18.4 61 16.1 87 87 SW 6 9 29.74 1007 10 16.0934 0 0
9:35 pm 21:35 Mostly Cloudy with Light Rain 65 18.3 61 16 87 87 ESE 6 9 29.71 1006 10 16.0934 0 0
9:55 pm 21:55 Mostly Cloudy 64 17.6 59 15.2 86 86 ESE 7 11 29.74 1007 10 16.0934 0 0
10:15 pm 22:15 Partly Cloudy 63 17.2 60 15.6 90 90 Calm 29.74 1007 10 16.0934 0 0
10:35 pm 22:35 Clear 62 16.6 60 15.4 93 93 Calm 29.74 1007 10 16.0934 0 0
10:55 pm 22:55 Clear 60 15.5 58 14.4 93 93 SSW 5 7 29.74 1007 10 16.0934 0 0
11:15 pm 23:15 Clear 60 15.6 58 14.5 93 93 Calm 29.74 1007 10 16.0934 0 0
11:35 pm 23:35 Clear 60 15.4 58 14.4 94 94 SSE 5 7 29.74 1007 10 16.0934 0 0
11:55 pm 23:55 Clear 59 15.2 58 14.3 94 94 SSE 6 9 29.74 1007 10 16.0934 0 0

Powered by AerisWeather